#timestamp,LO_Frequency,Hit,StdDev 
1564286415.4,286047001.4,N
1564286435.3,286047003.7,N
1564286455.1,286047002.4,N
1564286475.8,286047000.9,N
1564286495.7,286046998.2,N
1564286515.5,286046999.1,N
1564286535.4,286046999.0,N
1564286555.2,286046996.5,N
1564286575.0,286046998.3,N
1564286575.9,286046998.3,N
1564286595.8,286047001.1,N
1564286615.6,286046998.2,N
1564286635.4,286046999.2,N
1564286655.3,286046998.7,N
1564286675.1,286046999.5,N
1564286695.9,286046998.7,N
1564286715.7,286046998.4,N
1564286735.5,286046999.4,N
1564286755.4,286046997.4,N
1564286775.2,286046996.7,N
1564286795.0,286046999.5,N
1564286795.9,286046999.5,N
1564286815.8,286046995.0,N
1564286835.6,286046995.4,N
1564286855.5,286046997.3,N
1564286875.3,286046996.5,N
1564286925.2,286046996.5,E
1564286935.1,286046999.5,N
1564286936.0,286046999.5,P
1564286955.8,286047000.3,P
1564286975.7,286047001.8,Y
1564286995.5,286047001.6,P
1564287015.3,286047001.9,N
1564287035.2,286047001.6,N
1564287055.0,286047001.3,N
1564287055.9,286047001.3,N
1564287075.8,286047004.2,Y
1564287095.6,286047003.8,P
1564287115.4,286047003.1,N
1564287135.3,286047005.5,P
1564287155.1,286047003.3,N
1564287175.8,286047003.5,N
1564287195.7,286047003.7,N
1564287215.5,286047004.1,Y
1564287235.4,286047000.9,P
1564287255.2,286047000.9,N
1564287275.0,286046999.7,N
1564287275.9,286046999.7,N
1564287295.8,286047002.6,N
1564287315.6,286047002.3,N
1564287335.5,286047001.8,N
1564287355.3,286047000.5,N
1564287375.1,286047000.8,N
1564287395.9,286046998.7,N
1564287415.7,286046999.0,N
1564287435.5,286046998.6,N
1564287455.4,286046998.4,N
1564287475.2,286046999.6,N
1564287495.1,286046999.5,N
1564287496.0,286046999.5,N
1564287515.8,286047001.2,N
1564287535.6,286046998.5,N
1564287555.5,286047000.5,N
1564287575.3,286047001.0,N
1564287595.1,286047001.0,N
1564287615.9,286046998.5,N
1564287635.7,286047000.0,N
1564287655.6,286047000.2,N
1564287675.4,286047000.2,N
1564287695.2,286046999.9,N
1564287715.1,286047001.6,N
1564287716.0,286047001.6,N
1564287735.8,286047002.5,N
1564287755.7,286046999.8,N
1564287775.5,286047000.2,N
1564287795.3,286046999.9,N
1564287815.2,286047001.2,N
1564287835.0,286047000.8,N
1564287835.9,286047000.8,N
1564287855.7,286047002.4,N
1564287875.6,286047000.2,N
1564287895.4,286047000.1,N
1564287915.3,286047000.0,N
1564287935.1,286047000.2,N
1564287936.0,286047000.2,N
1564287955.8,286047002.8,N
1564287975.7,286047002.0,N
1564287995.5,286047002.3,N
1564288015.3,286047000.1,N
1564288035.2,286047002.1,N
1564288055.0,286047001.9,N
1564288055.9,286047001.9,N
1564288075.8,286047001.9,N
1564288095.6,286047004.2,Y
1564288115.4,286047001.7,P
1564288135.3,286047001.6,P
1564288155.1,286047003.9,P
1564288175.9,286047001.9,N
1564288195.7,286046999.8,N
1564288215.5,286047000.4,N
1564288235.4,286047001.0,N
1564288255.2,286046999.9,N
1564288275.0,286046998.1,N
1564288275.9,286046998.1,N
1564288295.8,286046998.3,N
1564288315.6,286046998.2,N
1564288335.5,286047002.8,N
1564288355.3,286047000.8,N
1564288375.1,286046998.5,N
1564288395.9,286046998.5,N
1564288415.7,286046998.7,N
1564288435.5,286046998.7,N
1564288455.4,286047000.7,N
1564288475.2,286047000.8,N
1564288495.1,286046998.6,N
1564288496.0,286046998.6,N
1564288515.8,286047000.8,N
1564288535.6,286047000.6,N
1564288555.5,286047000.9,N
1564288575.3,286047001.2,N
1564288595.1,286046998.8,N
1564288615.9,286047001.1,N
1564288635.7,286046998.8,N
1564288655.6,286046998.8,N
1564288675.4,286046999.3,N
1564288695.2,286046998.1,N
1564288715.1,286046998.6,N
1564288716.0,286046998.6,N
1564288735.8,286046998.5,N
1564288755.7,286046998.5,N
1564288775.5,286047000.8,N
1564288795.3,286046998.5,N
1564288815.2,286046999.0,N
1564288835.9,286046997.2,N
1564288855.7,286046997.3,N
1564288875.6,286046997.2,N
1564288895.4,286046999.4,N
1564288915.3,286046999.0,N
1564288935.1,286046996.6,N
1564288936.0,286046996.6,N
1564288955.8,286046996.6,N
1564288975.7,286046999.2,N
1564288995.5,286046999.4,N
1564289015.3,286046999.1,N
1564289035.2,286047001.1,N
1564289055.0,286046997.4,N
1564289055.9,286046997.4,N
1564289075.8,286046999.1,N
1564289095.6,286046996.9,N
1564289115.4,286046996.9,N
1564289135.3,286046996.5,N
1564289155.1,286046996.5,N
1564289175.8,286046998.7,N
1564289195.7,286046998.5,N
1564289215.5,286047001.1,N
1564289235.4,286046998.5,N
1564289255.2,286046998.7,N
1564289275.0,286046998.6,N
1564289275.9,286046998.6,N
1564289295.8,286046998.2,N
1564289315.6,286046996.9,N
1564289335.4,286046997.3,N
1564289355.3,286046999.5,N
1564289375.1,286046996.8,N
1564289395.9,286046996.7,N
1564289415.7,286046997.0,N
1564289435.5,286046996.7,N
1564289455.4,286046996.8,N
1564289475.2,286046996.5,N
1564289495.0,286046999.1,N
1564289496.0,286046999.1,N
1564289515.8,286046997.3,N
1564289535.6,286046994.9,Y
1564289555.5,286046996.7,P
1564289575.3,286046996.9,P
1564289595.1,286046999.0,N
1564289615.9,286046998.6,N
1564289635.7,286047001.1,N
1564289655.6,286047001.0,N
1564289675.4,286046999.8,N
1564289695.2,286047002.7,N
1564289715.1,286047002.2,N
1564289716.0,286047002.2,N
1564289735.8,286047002.1,N
1564289755.6,286047002.1,N
1564289775.5,286047002.8,N
1564289795.3,286047000.0,N
1564289815.2,286046998.2,N
1564289835.9,286047000.2,N
1564289855.7,286047000.2,N
1564289875.6,286047002.8,N
1564289895.4,286047001.9,N
1564289915.2,286047001.5,N
1564289935.1,286047002.4,N
1564289936.0,286047002.4,N
1564289955.8,286047002.5,N
1564289975.7,286047001.9,N
1564289995.5,286047001.3,N
